Location: Brede
(50.9167°N, 0.6000°E)
Time: 09:43:54
(UTC+00:00)

A-11 Canister half - Pass Details

Date: 05 December 2020
Orbit: 1524 x 1684 km, 47.3° (Epoch: 20 January)

Event Time Altitude Azimuth Distance (km) Brightness Sun altitude
Exits shadow 02:47:28 24° 144° (SE) 2,992 10.5 -45.2°
Maximum altitude 02:48:50 25° 132° (SE) 2,953 10.5 -45.0°
Drops below altitude 10° 02:56:21 10° 84° (E) 3,935 11.7 -43.9°
Sets 03:00:14 0° 72° (ENE) 4,910 12.4 -43.3°
